• In Hungary
  • List of Countries
  • For 7 days
  • Water Temperature
  • Satellite Maps
  • Weather Map
  • News
  • Weather Widgets
  • user-avatar
    Login

    Hourly Weather Kozani

    Today, 24 September, Monday

    Time Temperature Precipitation Wind Pressure Humidity
    00:00 +20°C° 0 mm 1 mps 706 mmHg 55%
    01:00 +20°C° 0 mm 1 mps 706 mmHg 57%
    02:00 +20°C° 0 mm 1 mps 706 mmHg 58%
    03:00 +19°C° 0 mm 1 mps 706 mmHg 60%
    04:00 +19°C° 0 mm 1 mps 705 mmHg 61%
    05:00 +20°C° 0 mm 1 mps 705 mmHg 59%
    06:00 +21°C° 0 mm 1 mps 705 mmHg 57%
    07:00 +22°C° 0 mm 1 mps 705 mmHg 55%
    08:00 +24°C° 0 mm 1 mps 706 mmHg 48%
    09:00 +27°C° 0 mm 1 mps 706 mmHg 42%
    10:00 +29°C° 0 mm 1 mps 706 mmHg 35%
    11:00 +30°C° 0 mm 2 mps 705 mmHg 32%
    12:00 +31°C° 0 mm 2 mps 705 mmHg 29%
    13:00 +32°C° 0 mm 2 mps 705 mmHg 25%
    14:00 +31°C° 0 mm 2 mps 705 mmHg 27%
    15:00 +30°C° 0 mm 2 mps 704 mmHg 29%
    16:00 +30°C° 0 mm 3 mps 704 mmHg 30%
    17:00 +27°C° 0 mm 3 mps 704 mmHg 37%
    18:00 +24°C° 0 mm 3 mps 705 mmHg 43%
    19:00 +21°C° 0 mm 3 mps 705 mmHg 50%
    20:00 +19°C° 0 mm 3 mps 705 mmHg 53%
    21:00 +18°C° 0 mm 3 mps 706 mmHg 55%
    22:00 +16°C° 0 mm 3 mps 706 mmHg 57%
    23:00 +16°C° 0 mm 3 mps 706 mmHg 58%

    Tomorrow, 25 September, Tuesday

    Time Temperature Precipitation Wind Pressure Humidity
    00:00 +14°C° 0 mm 3 mps 706 mmHg 59%
    01:00 +13°C° 0 mm 3 mps 707 mmHg 60%
    02:00 +12°C° 0 mm 3 mps 707 mmHg 60%
    03:00 +12°C° 0 mm 3 mps 707 mmHg 60%
    04:00 +11°C° 0 mm 3 mps 707 mmHg 60%
    05:00 +11°C° 0 mm 3 mps 708 mmHg 57%
    06:00 +12°C° 0 mm 3 mps 708 mmHg 55%
    07:00 +12°C° 0 mm 3 mps 709 mmHg 52%
    08:00 +13°C° 0 mm 3 mps 709 mmHg 47%
    09:00 +16°C° 0 mm 3 mps 710 mmHg 42%
    10:00 +17°C° 0 mm 3 mps 710 mmHg 37%
    11:00 +18°C° 0 mm 3 mps 710 mmHg 35%
    12:00 +19°C° 0 mm 3 mps 710 mmHg 33%
    13:00 +20°C° 0 mm 3 mps 709 mmHg 31%
    14:00 +20°C° 0 mm 3 mps 709 mmHg 31%
    15:00 +19°C° 0 mm 3 mps 709 mmHg 31%
    16:00 +19°C° 0 mm 3 mps 709 mmHg 30%
    17:00 +17°C° 0 mm 3 mps 709 mmHg 33%
    18:00 +15°C° 0 mm 2 mps 710 mmHg 35%
    19:00 +14°C° 0 mm 2 mps 710 mmHg 38%
    20:00 +13°C° 0 mm 2 mps 711 mmHg 39%
    21:00 +12°C° 0 mm 2 mps 711 mmHg 40%
    22:00 +10°C° 0 mm 2 mps 711 mmHg 42%
    23:00 +9°C° 0 mm 2 mps 711 mmHg 43%

    Day after tomorrow, 26 September, Wednesday

    Time Temperature Precipitation Wind Pressure Humidity
    00:00 +8°C° 0 mm 2 mps 711 mmHg 44%
    01:00 +8°C° 0 mm 2 mps 711 mmHg 45%
    02:00 +7°C° 0 mm 2 mps 711 mmHg 46%
    03:00 +7°C° 0 mm 2 mps 711 mmHg 47%
    04:00 +6°C° 0 mm 2 mps 711 mmHg 49%
    05:00 +7°C° 0 mm 2 mps 712 mmHg 47%
    06:00 +7°C° 0 mm 2 mps 712 mmHg 46%
    07:00 +8°C° 0 mm 2 mps 712 mmHg 45%
    08:00 +10°C° 0 mm 3 mps 712 mmHg 42%
    09:00 +11°C° 0 mm 3 mps 713 mmHg 40%
    10:00 +12°C° 0 mm 3 mps 713 mmHg 38%
    11:00 +13°C° 0 mm 3 mps 713 mmHg 35%
    12:00 +14°C° 0 mm 3 mps 712 mmHg 33%
    13:00 +16°C° 0 mm 3 mps 712 mmHg 30%
    14:00 +16°C° 0 mm 3 mps 712 mmHg 29%
    15:00 +14°C° 0 mm 3 mps 712 mmHg 28%
    16:00 +14°C° 0 mm 3 mps 711 mmHg 27%
    17:00 +13°C° 0 mm 3 mps 712 mmHg 30%
    18:00 +12°C° 0 mm 2 mps 712 mmHg 34%
    19:00 +9°C° 0 mm 2 mps 712 mmHg 37%
    20:00 +9°C° 0 mm 2 mps 712 mmHg 39%
    21:00 +8°C° 0 mm 2 mps 712 mmHg 41%
    22:00 +8°C° 0 mm 2 mps 713 mmHg 42%
    23:00 +7°C° 0 mm 2 mps 713 mmHg 45%

    27 September, Thursday

    Time Temperature Precipitation Wind Pressure Humidity
    00:00 +6°C° 0 mm 2 mps 712 mmHg 48%
    01:00 +6°C° 0 mm 2 mps 712 mmHg 50%
    02:00 +5°C° 0 mm 2 mps 712 mmHg 52%
    03:00 +5°C° 0 mm 2 mps 711 mmHg 53%
    04:00 +4°C° 0 mm 2 mps 711 mmHg 54%
    05:00 +5°C° 0 mm 2 mps 711 mmHg 50%
    06:00 +5°C° 0 mm 3 mps 711 mmHg 46%
    07:00 +7°C° 0 mm 3 mps 711 mmHg 42%
    08:00 +10°C° 0 mm 3 mps 711 mmHg 35%
    09:00 +12°C° 0 mm 4 mps 710 mmHg 29%
    10:00 +14°C° 0 mm 4 mps 710 mmHg 22%
    11:00 +15°C° 0 mm 5 mps 710 mmHg 20%
    12:00 +16°C° 0 mm 5 mps 709 mmHg 18%
    13:00 +19°C° 0 mm 5 mps 708 mmHg 16%
    14:00 +19°C° 0 mm 5 mps 708 mmHg 17%
    15:00 +19°C° 0 mm 4 mps 708 mmHg 17%
    16:00 +18°C° 0 mm 4 mps 707 mmHg 17%
    17:00 +16°C° 0 mm 3 mps 707 mmHg 21%
    18:00 +13°C° 0 mm 3 mps 707 mmHg 24%
    19:00 +12°C° 0 mm 2 mps 707 mmHg 28%
    20:00 +10°C° 0 mm 2 mps 707 mmHg 31%
    21:00 +10°C° 0 mm 2 mps 707 mmHg 33%
    22:00 +9°C° 0 mm 2 mps 707 mmHg 36%
    23:00 +9°C° 0 mm 2 mps 706 mmHg 37%

    28 September, Friday

    Time Temperature Precipitation Wind Pressure Humidity
    00:00 +8°C° 0 mm 2 mps 706 mmHg 39%
    01:00 +8°C° 0 mm 2 mps 706 mmHg 41%
    02:00 +8°C° 0 mm 2 mps 706 mmHg 41%
    03:00 +8°C° 0 mm 2 mps 705 mmHg 41%
    04:00 +8°C° 0 mm 2 mps 705 mmHg 41%
    05:00 +9°C° 0 mm 2 mps 705 mmHg 40%
    06:00 +10°C° 0 mm 2 mps 705 mmHg 38%
    07:00 +10°C° 0 mm 2 mps 705 mmHg 37%
    08:00 +12°C° 0.1 mm 2 mps 705 mmHg 37%
    09:00 +13°C° 0.1 mm 2 mps 705 mmHg 36%
    10:00 +14°C° 0.1 mm 2 mps 705 mmHg 36%
    11:00 +15°C° 0.1 mm 2 mps 705 mmHg 39%
    12:00 +15°C° 0.1 mm 2 mps 704 mmHg 43%
    13:00 +15°C° 0.1 mm 2 mps 704 mmHg 46%
    14:00 +15°C° 0.1 mm 2 mps 704 mmHg 49%
    15:00 +15°C° 0.1 mm 2 mps 704 mmHg 51%
    16:00 +15°C° 0.1 mm 1 mps 704 mmHg 54%
    17:00 +14°C° 0 mm 1 mps 704 mmHg 57%
    18:00 +13°C° 0 mm 1 mps 704 mmHg 60%
    19:00 +13°C° 0 mm 1 mps 704 mmHg 63%
    20:00 +12°C° 0 mm 1 mps 704 mmHg 64%
    21:00 +12°C° 0 mm 1 mps 704 mmHg 66%
    22:00 +12°C° 0 mm 1 mps 704 mmHg 67%
    23:00 +11°C° 0 mm 1 mps 704 mmHg 66%

    29 September, Saturday

    Time Temperature Precipitation Wind Pressure Humidity
    00:00 +11°C° 0 mm 1 mps 704 mmHg 65%
    01:00 +11°C° 0 mm 1 mps 704 mmHg 64%
    02:00 +11°C° 0 mm 1 mps 704 mmHg 63%
    03:00 +11°C° 0 mm 1 mps 704 mmHg 62%
    04:00 +11°C° 0 mm 1 mps 704 mmHg 61%
    05:00 +12°C° 0 mm 1 mps 704 mmHg 57%
    06:00 +13°C° 0 mm 1 mps 705 mmHg 53%
    07:00 +14°C° 0 mm 1 mps 705 mmHg 49%
    08:00 +16°C° 0 mm 1 mps 705 mmHg 43%
    09:00 +19°C° 0 mm 1 mps 706 mmHg 38%
    10:00 +20°C° 0 mm 2 mps 706 mmHg 32%
    11:00 +22°C° 0 mm 1 mps 706 mmHg 30%
    12:00 +23°C° 0 mm 1 mps 706 mmHg 29%
    13:00 +24°C° 0 mm 1 mps 706 mmHg 27%
    14:00 +24°C° 0 mm 1 mps 706 mmHg 28%
    15:00 +23°C° 0 mm 1 mps 706 mmHg 28%
    16:00 +23°C° 0 mm 1 mps 706 mmHg 29%
    17:00 +21°C° 0 mm 1 mps 706 mmHg 34%
    18:00 +19°C° 0 mm 1 mps 706 mmHg 39%
    19:00 +16°C° 0 mm 1 mps 706 mmHg 45%
    20:00 +15°C° 0 mm 1 mps 707 mmHg 47%
    21:00 +15°C° 0 mm 1 mps 707 mmHg 50%
    22:00 +13°C° 0 mm 0 mps 707 mmHg 53%
    23:00 +14°C° 0 mm 1 mps 707 mmHg 54%
    Show more

    3.3.7123123